KK4OHF Weather Reports


time (UTC)temp
C
wind
direction
speed
KPH
gust
KPH
rain 1hr
cm
rain 24hr
cm
rain mn
cm
humidity
%
barometer
mb
20260905032505 26 214 0.0 0.0 0.00 0.00 0.00 86 1015.0
20260905032005 26 214 0.0 0.0 0.00 0.00 0.00 86 1015.0
20260905031505 26 214 0.0 0.0 0.00 0.00 0.00 86 1015.0
20260905031005 26 214 0.0 0.0 0.00 0.00 0.00 86 1015.0
20260905030505 26 214 0.0 0.0 0.00 0.00 0.00 85 1015.0
20260905030004 26 214 0.0 0.0 0.00 0.00 0.00 85 1015.1
20260905025505 26 214 0.0 0.0 0.00 0.00 0.00 85 1015.1
20260905025006 26 214 0.0 0.0 0.00 0.00 0.00 85 1015.1
20260905024504 26 214 0.0 0.0 0.00 0.00 0.00 85 1015.1
20260905024005 26 214 0.0 0.0 0.00 0.00 0.00 85 1015.1
20260905023505 26 214 0.0 1.6 0.00 0.00 0.00 85 1015.1
20260905023005 27 214 0.0 0.0 0.00 0.00 0.00 84 1015.1
20260905022005 27 214 0.0 1.6 0.00 0.00 0.00 84 1015.1
20260905021505 27 214 0.0 0.0 0.00 0.00 0.00 84 1015.1
20260905021005 27 214 0.0 0.0 0.00 0.00 0.00 83 1015.1
20260905020505 27 214 0.0 0.0 0.00 0.00 0.00 83 1015.1
20260905020005 27 214 0.0 0.0 0.00 0.00 0.00 83 1015.1
20260905015506 27 214 0.0 3.2 0.00 0.00 0.00 82 1015.1
20260905015005 27 214 0.0 0.0 0.00 0.00 0.00 82 1014.8
20260905014505 28 214 0.0 0.0 0.00 0.00 0.00 82 1014.8
20260905014005 28 214 0.0 0.0 0.00 0.00 0.00 81 1014.8
20260905013505 28 214 0.0 0.0 0.00 0.00 0.00 81 1014.8
20260905013006 28 214 0.0 0.0 0.00 0.00 0.00 81 1014.7
20260905012505 28 214 0.0 0.0 0.00 0.00 0.00 80 1014.7
20260905012006 28 214 0.0 0.0 0.00 0.00 0.00 80 1014.7
20260905011506 28 214 0.0 1.6 0.00 0.00 0.00 79 1014.7
20260905011004 28 214 0.0 0.0 0.00 0.00 0.00 79 1014.7
20260905010506 29 214 0.0 0.0 0.00 0.00 0.00 78 1014.7
20260905010005 29 214 0.0 1.6 0.00 0.00 0.00 78 1014.7
20260905005505 29 214 0.0 0.0 0.00 0.00 0.00 77 1014.7
20260905005005 29 214 0.0 1.6 0.00 0.00 0.00 76 1014.7
20260905004506 30 214 1.6 3.2 0.00 0.00 0.00 76 1014.7
20260905004005 30 130 0.0 0.0 0.00 0.00 0.00 75 1014.7
20260905003506 30 130 0.0 0.0 0.00 0.00 0.00 74 1014.7
20260905003005 30 130 0.0 0.0 0.00 0.00 0.00 73 1014.6
20260905002505 30 130 0.0 0.0 0.00 0.00 0.00 72 1014.6
20260905002006 31 130 0.0 0.0 0.00 0.00 0.00 72 1014.5
20260905001505 31 130 0.0 1.6 0.00 0.00 0.00 72 1014.5
20260905001005 31 130 0.0 0.0 0.00 0.00 0.00 72 1014.2
20260905000505 31 130 0.0 0.0 0.00 0.00 0.00 71 1014.2
20260905000005 32 130 0.0 1.6 0.00 0.00 0.00 70 1014.2
20260904235505 32 131 0.0 0.0 0.00 0.00 0.00 69 1014.2
20260904234505 32 131 0.0 0.0 0.00 0.00 0.00 68 1014.2
20260904234005 32 131 0.0 0.0 0.00 0.00 0.00 67 1014.2
20260904233505 32 131 0.0 0.0 0.00 0.00 0.00 66 1014.2
20260904233005 33 131 0.0 0.0 0.00 0.00 0.00 65 1014.2
20260904232506 33 131 0.0 0.0 0.00 0.00 0.00 63 1014.2
20260904232005 33 131 0.0 0.0 0.00 0.00 0.00 62 1014.2
20260904231005 33 131 0.0 1.6 0.00 0.00 0.00 60 1014.1
20260904230006 33 131 0.0 0.0 0.00 0.00 0.00 57 1013.9
20260904223506 33 131 0.0 1.6 0.00 0.00 0.00 55 1013.7
20260904223005 33 131 0.0 3.2 0.00 0.00 0.00 54 1013.7
20260904222004 33 131 0.0 3.2 0.00 0.00 0.00 55 1013.8
20260904221505 33 124 1.6 3.2 0.00 0.00 0.00 54 1013.8
20260904221006 33 306 0.0 1.6 0.00 0.00 0.00 54 1013.8
20260904220505 33 150 1.6 1.6 0.00 0.00 0.00 53 1013.8
20260904220005 33 122 0.0 4.8 0.00 0.00 0.00 54 1014.1
20260904215506 33 108 1.6 4.8 0.00 0.00 0.00 54 1014.1
20260904215005 33 112 1.6 4.8 0.00 0.00 0.00 54 1014.1
20260904214506 33 29 0.0 1.6 0.00 0.00 0.00 53 1014.1
20260904214005 33 29 0.0 3.2 0.00 0.00 0.00 53 1014.1
20260904213506 33 29 0.0 3.2 0.00 0.00 0.00 53 1014.1
20260904213006 33 44 1.6 3.2 0.00 0.00 0.00 52 1014.1
20260904212505 33 36 1.6 4.8 0.00 0.00 0.00 52 1014.1
20260904212004 33 29 1.6 4.8 0.00 0.00 0.00 54 1014.2
20260904211505 33 5 0.0 3.2 0.00 0.00 0.00 53 1014.2
20260904210505 34 33 3.2 4.8 0.00 0.00 0.00 52 1014.2
20260904205505 34 64 0.0 3.2 0.00 0.00 0.00 52 1014.2
20260904205005 34 103 3.2 4.8 0.00 0.00 0.00 53 1014.2
20260904204505 34 11 3.2 8.0 0.00 0.00 0.00 52 1014.5
20260904204005 34 12 1.6 4.8 0.00 0.00 0.00 53 1014.5
20260904203005 34 57 1.6 11.3 0.00 0.00 0.00 53 1014.6
20260904202504 34 291 1.6 11.3 0.00 0.00 0.00 52 1014.6
20260904201505 35 180 3.2 12.9 0.00 0.00 0.00 52 1014.9
20260904201006 34 351 1.6 4.8 0.00 0.00 0.00 52 1014.9
20260904200505 34 13 3.2 8.0 0.00 0.00 0.00 52 1014.9
20260904200005 35 9 1.6 4.8 0.00 0.00 0.00 52 1015.1
20260904195504 35 162 3.2 8.0 0.00 0.00 0.00 53 1015.1
20260904195006 34 123 1.6 4.8 0.00 0.00 0.00 56 1015.1
20260904194505 34 15 3.2 8.0 0.00 0.00 0.00 55 1015.1
20260904194005 34 229 1.6 8.0 0.00 0.00 0.00 55 1015.2
20260904193506 34 114 1.6 8.0 0.00 0.00 0.00 55 1015.2
20260904192504 33 15 1.6 3.2 0.00 0.00 0.00 55 1015.4
20260904192005 35 62 1.6 4.8 0.00 0.00 0.00 56 1015.6
20260904191006 34 100 1.6 4.8 0.00 0.00 0.00 55 1015.8
20260904190505 34 145 4.8 11.3 0.00 0.00 0.00 53 1015.8
20260904190005 34 108 4.8 8.0 0.00 0.00 0.00 55 1016.0
20260904185504 34 22 1.6 4.8 0.00 0.00 0.00 58 1016.0
20260904185005 33 11 3.2 9.7 0.00 0.00 0.00 54 1016.0
20260904184505 33 31 1.6 4.8 0.00 0.00 0.00 56 1016.2
20260904182505 33 224 1.6 4.8 0.00 0.00 0.00 57 1016.6
20260904181505 33 79 3.2 9.7 0.00 0.00 0.00 58 1016.6
20260904181005 33 13 3.2 4.8 0.00 0.00 0.00 60 1016.8
20260904180505 33 30 1.6 4.8 0.00 0.00 0.00 61 1016.8
20260904180005 33 11 4.8 11.3 0.00 0.00 0.00 57 1016.9
20260904175504 33 93 1.6 3.2 0.00 0.00 0.00 62 1016.9
20260904175005 32 347 3.2 4.8 0.00 0.00 0.00 62 1016.9
20260904174506 32 355 0.0 3.2 0.00 0.00 0.00 63 1016.9
20260904174005 32 357 1.6 4.8 0.00 0.00 0.00 62 1016.9
20260904173506 32 5 3.2 4.8 0.00 0.00 0.00 62 1016.9
20260904173006 32 1 1.6 4.8 0.00 0.00 0.00 62 1017.2
20260904172505 32 17 3.2 4.8 0.00 0.00 0.00 63 1017.2
20260904171506 33 101 1.6 4.8 0.00 0.00 0.00 62 1017.2
20260904171005 33 151 1.6 8.0 0.00 0.00 0.00 57 1017.4
20260904170004 33 94 3.2 11.3 0.00 0.00 0.00 60 1017.4
20260904165004 33 183 1.6 3.2 0.00 0.00 0.00 61 1017.4
20260904164505 32 167 1.6 4.8 0.00 0.00 0.00 62 1017.4
20260904164004 32 305 1.6 4.8 0.00 0.00 0.00 64 1017.6
20260904163505 32 70 1.6 4.8 0.00 0.00 0.00 64 1017.6
20260904161504 32 16 3.2 8.0 0.00 0.00 0.00 64 1017.9
20260904161006 31 355 1.6 4.8 0.00 0.00 0.00 64 1017.9
20260904160005 31 106 3.2 9.7 0.00 0.00 0.00 67 1017.9
20260904155505 31 11 3.2 9.7 0.00 0.00 0.00 65 1017.9
20260904155004 31 20 3.2 9.7 0.00 0.00 0.00 66 1017.9
20260904154005 31 117 1.6 4.8 0.00 0.00 0.00 68 1017.9
20260904153505 31 80 1.6 8.0 0.00 0.00 0.00 69 1017.9
20260904153005 31 49 1.6 3.2 0.00 0.00 0.00 68 1017.8
20260904152505 30 20 0.0 1.6 0.00 0.00 0.00 67 1017.8
20260904152004 30 20 0.0 3.2 0.00 0.00 0.00 70 1017.8
20260904151505 30 0 1.6 4.8 0.00 0.00 0.00 68 1017.9
20260904151006 30 17 1.6 3.2 0.00 0.00 0.00 70 1017.9
20260904150505 30 150 1.6 3.2 0.00 0.00 0.00 69 1017.9
20260904150005 30 150 0.0 1.6 0.00 0.00 0.00 70 1017.7
20260904145005 30 150 0.0 1.6 0.00 0.00 0.00 71 1017.7
20260904144504 30 150 0.0 3.2 0.00 0.00 0.00 70 1017.7
20260904144005 30 150 0.0 3.2 0.00 0.00 0.00 74 1017.6
20260904143505 29 284 0.0 1.6 0.00 0.00 0.00 75 1017.6
20260904143005 28 73 0.0 1.6 0.00 0.00 0.00 76 1017.5
20260904142005 28 9 1.6 4.8 0.00 0.00 0.00 78 1017.4
20260904141505 28 124 1.6 1.6 0.00 0.00 0.00 78 1017.4
20260904141005 28 124 1.6 3.2 0.00 0.00 0.00 78 1017.4
20260904140006 27 124 0.0 1.6 0.00 0.00 0.00 82 1017.4
20260904135506 27 124 1.6 3.2 0.00 0.00 0.00 82 1017.4
20260904135006 27 124 1.6 3.2 0.00 0.00 0.00 84 1017.4
20260904134505 26 124 1.6 3.2 0.00 0.00 0.00 87 1017.4
20260904134006 25 124 1.6 4.8 0.00 0.00 0.00 89 1017.4
20260904133506 24 49 0.0 1.6 0.00 0.00 0.00 89 1017.4
20260904133005 24 49 0.0 1.6 0.00 0.00 0.00 89 1017.3
20260904132505 24 49 0.0 1.6 0.00 0.00 0.00 89 1017.3
20260904131505 23 49 1.6 3.2 0.00 0.00 0.00 89 1017.3
20260904131005 23 49 0.0 3.2 0.00 0.00 0.00 89 1017.4
20260904130506 23 49 0.0 1.6 0.00 0.00 0.00 89 1017.4
20260904130005 23 49 0.0 0.0 0.00 0.00 0.00 89 1017.3
20260904125505 23 49 0.0 0.0 0.00 0.00 0.00 89 1017.3
20260904125005 23 49 0.0 0.0 0.00 0.00 0.00 89 1017.3
20260904124505 22 49 0.0 0.0 0.00 0.00 0.00 89 1017.3
20260904124005 22 49 0.0 0.0 0.00 0.00 0.00 89 1017.2
20260904123504 22 49 0.0 0.0 0.00 0.00 0.00 89 1017.2
20260904122505 22 49 0.0 0.0 0.00 0.00 0.00 90 1017.2
20260904122005 22 49 0.0 0.0 0.00 0.00 0.00 90 1017.1
20260904121505 22 49 0.0 0.0 0.00 0.00 0.00 90 1017.1
20260904120505 22 49 0.0 0.0 0.00 0.00 0.00 89 1016.9
20260904120004 21 49 0.0 0.0 0.00 0.00 0.00 90 1016.9
20260904115004 21 49 0.0 0.0 0.00 0.00 0.00 90 1016.9
20260904114004 21 49 0.0 0.0 0.00 0.00 0.00 90 1016.8
20260904113505 21 49 0.0 0.0 0.00 0.00 0.00 90 1016.8
20260904113005 22 49 0.0 0.0 0.00 0.00 0.00 90 1016.4
20260904112505 22 49 0.0 0.0 0.00 0.00 0.00 90 1016.4
20260904112005 22 49 0.0 0.0 0.00 0.00 0.00 90 1016.4
20260904111505 22 49 0.0 0.0 0.00 0.00 0.00 89 1016.4
20260904111005 22 49 0.0 0.0 0.00 0.00 0.00 90 1016.4
20260904110505 22 49 0.0 0.0 0.00 0.00 0.00 89 1016.4
20260904110006 22 49 0.0 0.0 0.00 0.00 0.00 90 1016.3
20260904105505 22 49 0.0 0.0 0.00 0.00 0.00 90 1016.3
20260904105005 22 49 0.0 0.0 0.00 0.00 0.00 90 1016.3
20260904104005 22 49 0.0 0.0 0.00 0.00 0.00 90 1016.3
20260904103505 22 49 0.0 0.0 0.00 0.00 0.00 90 1016.3
20260904102505 22 49 0.0 0.0 0.00 0.00 0.00 89 1016.3
20260904102005 22 49 0.0 0.0 0.00 0.00 0.00 89 1016.3
20260904101506 22 49 0.0 0.0 0.00 0.00 0.00 89 1016.3
20260904101005 22 49 0.0 0.0 0.00 0.00 0.00 89 1016.3
20260904100505 22 49 0.0 0.0 0.00 0.00 0.00 89 1016.3
20260904100004 22 49 0.0 0.0 0.00 0.00 0.00 89 1016.3
20260904095504 22 49 0.0 0.0 0.00 0.00 0.00 89 1016.3
20260904095005 22 49 0.0 0.0 0.00 0.00 0.00 90 1016.3
20260904094504 22 49 0.0 0.0 0.00 0.00 0.00 90 1016.2
20260904094005 22 49 0.0 0.0 0.00 0.00 0.00 90 1016.1
20260904093006 22 49 0.0 0.0 0.00 0.00 0.00 89 1016.1
20260904092505 22 49 0.0 0.0 0.00 0.00 0.00 89 1016.1
20260904092004 22 49 0.0 0.0 0.00 0.00 0.00 89 1016.1
20260904091505 22 49 0.0 0.0 0.00 0.00 0.00 89 1016.1
20260904090506 22 49 0.0 0.0 0.00 0.00 0.00 89 1016.1
20260904085505 22 49 0.0 0.0 0.00 0.00 0.00 89 1016.1
20260904085006 22 49 0.0 0.0 0.00 0.00 0.00 89 1016.1
20260904084505 22 49 0.0 0.0 0.00 0.00 0.00 89 1016.1
20260904084005 23 49 0.0 0.0 0.00 0.00 0.00 89 1016.1
20260904083506 23 49 0.0 0.0 0.00 0.00 0.00 89 1016.1
20260904083006 23 49 0.0 0.0 0.00 0.00 0.00 89 1016.1
20260904082505 23 49 0.0 0.0 0.00 0.00 0.00 89 1016.1
20260904082005 23 49 0.0 0.0 0.00 0.00 0.00 89 1015.9
20260904081504 23 49 0.0 0.0 0.00 0.00 0.00 89 1015.9
20260904081006 23 49 0.0 0.0 0.00 0.00 0.00 89 1015.9
20260904080505 23 49 0.0 0.0 0.00 0.00 0.00 89 1015.9
20260904080004 23 49 0.0 0.0 0.00 0.00 0.00 89 1015.9
20260904075505 23 49 0.0 0.0 0.00 0.00 0.00 89 1015.9
20260904075005 23 49 0.0 0.0 0.00 0.00 0.00 89 1015.9
20260904074504 23 49 0.0 0.0 0.00 0.00 0.00 89 1016.0
20260904074005 23 49 0.0 0.0 0.00 0.00 0.00 89 1015.9
20260904073505 23 49 0.0 0.0 0.00 0.00 0.00 89 1015.9
20260904073005 23 49 0.0 0.0 0.00 0.00 0.00 89 1015.8
20260904072505 23 49 0.0 0.0 0.00 0.00 0.00 89 1015.8
20260904072005 23 49 0.0 0.0 0.00 0.00 0.00 89 1015.8
20260904071505 23 49 0.0 0.0 0.00 0.00 0.00 89 1015.9
20260904071005 23 49 0.0 0.0 0.00 0.00 0.00 89 1015.9
20260904070505 23 49 0.0 0.0 0.00 0.00 0.00 89 1015.9
20260904070005 23 49 0.0 0.0 0.00 0.00 0.00 89 1016.0
20260904065506 23 49 0.0 0.0 0.00 0.00 0.00 89 1016.0
20260904064005 23 49 0.0 0.0 0.00 0.00 0.00 88 1016.3
20260904063505 23 49 0.0 0.0 0.00 0.00 0.00 88 1016.3
20260904062505 23 49 0.0 0.0 0.00 0.00 0.00 88 1016.3
20260904062006 23 49 0.0 0.0 0.00 0.00 0.00 88 1016.3
20260904061505 24 49 0.0 0.0 0.00 0.00 0.00 88 1016.3
20260904061005 24 49 0.0 0.0 0.00 0.00 0.00 88 1016.3
20260904060506 24 49 0.0 0.0 0.00 0.00 0.00 88 1016.3
20260904055504 24 49 0.0 0.0 0.00 0.00 0.00 88 1016.3
20260904055005 24 49 0.0 0.0 0.00 0.00 0.00 88 1016.3
20260904054505 24 49 0.0 0.0 0.00 0.00 0.00 87 1016.3
20260904054005 24 49 0.0 0.0 0.00 0.00 0.00 87 1016.3
20260904053504 24 49 0.0 0.0 0.00 0.00 0.00 87 1016.3
20260904053004 24 49 0.0 0.0 0.00 0.00 0.00 87 1016.3
20260904052504 24 49 0.0 0.0 0.00 0.00 0.00 87 1016.3
20260904052006 24 49 0.0 0.0 0.00 0.00 0.00 87 1016.3
20260904051505 25 49 0.0 0.0 0.00 0.00 0.00 86 1016.3
20260904051005 25 49 0.0 0.0 0.00 0.00 0.00 86 1016.3
20260904050504 25 49 0.0 0.0 0.00 0.00 0.00 86 1016.3
20260904050005 25 49 0.0 0.0 0.00 0.00 0.00 86 1016.3
20260904045505 25 49 0.0 0.0 0.00 0.00 0.00 86 1016.3
20260904045005 25 49 0.0 0.0 0.00 0.00 0.00 86 1016.4
20260904044505 25 49 0.0 0.0 0.00 0.00 0.00 86 1016.4
20260904044005 25 49 0.0 0.0 0.00 0.00 0.00 86 1016.4
20260904043506 25 49 0.0 0.0 0.00 0.00 0.00 85 1016.4
20260904043005 25 49 0.0 0.0 0.00 0.00 0.00 85 1016.4
20260904042505 25 49 0.0 0.0 0.00 0.00 0.00 85 1016.4
20260904042006 25 49 0.0 0.0 0.00 0.00 0.00 85 1016.3
20260904041505 25 49 0.0 0.0 0.00 0.00 0.00 85 1016.3
20260904041005 25 49 0.0 0.0 0.00 0.00 0.00 84 1016.3
20260904040505 25 49 0.0 0.0 0.00 0.00 0.00 84 1016.3
20260904040006 26 49 0.0 0.0 0.00 0.00 0.00 84 1016.5
20260904035505 26 49 0.0 0.0 0.00 0.00 0.00 84 1016.5
20260904035006 26 49 0.0 1.6 0.00 0.00 0.00 83 1016.5
20260904034505 26 49 0.0 0.0 0.00 0.00 0.00 83 1016.5
20260904034006 26 49 0.0 0.0 0.00 0.00 0.00 83 1016.5
20260904033504 26 49 0.0 0.0 0.00 0.00 0.00 83 1016.5
20260904033006 26 49 0.0 0.0 0.00 0.00 0.00 82 1016.4